Zurück zum Katalog

SCOUT X-4 R/B

AktivLEO
NORAD 907·ROCKET BODY·🇺🇸 United States

Gestartet Oct 10, 1964 von Vandenberg Space Force Base

Loading…

Nächste Überflüge (nächste 24 Stunden)

TLE

AktuellSource: Space-Track

Epoche: Sep 14, 2026, 16:18 UTC

1 00907U 64064B   26257.67934016  .00000071  00000-0  56915-4 0  9992
2 00907  79.6887  71.8115 0120881  72.6076 288.8250 13.80956070114990

Verfolge SCOUT X-4 R/B in Echtzeit mit AllMySat

Download on the App Store